www.pogodaiklimat.ru

Погода и климат >> Архив погоды >> Россия >> Кировская область >> Лальск


ПОГОДА в Лальске

  • Прогноз погоды в Лальске
  • Монитор погоды в Лальске

АРХИВ ПОГОДЫ в Лальске

Время (UTC), дата Ветер
(напр.,м/с)
 
Видим.   Явления Облачность Т
(С)
Тd
(С)
f
(%)
Тe
(С)
Тes
(С)
Комфортность P
(гПа)
Po
(гПа)
Тmin
(С)
Tmax
(С)
R
(мм)
R24
(мм)
S
(см)
06 16.08 ЮЗ 1-2
{5}
20 км 9/3 300 м
[Cb cap Ac cuf Ci fib]
+13.8 +10.7 82 +14 +17 1014.2 1004.2
09 16.08 З 2-4
{7}
20 км 9/4 300 м
[Cb cap Ac trans Cs]
+18.4 +11.4 64 +19 +23 1013.8 1003.9
12 16.08 ЮЗ 2-4
{6}
20 км 9/4 300 м
[Cb cap Ac cuf Cs]
+20.2 +12.4 61 +23 +25 комфорт 1014.1 1004.3
15 16.08 ЮЗ 1-3
{5}
20 км 9/5 300 м
[Cb cap Ac cuf Cs]
+19.2 +13.0 67 +22 +22 комфорт 1014.2 1004.3 +20.9
18 16.08 штиль 0
{3}
50 км 9/4 300 м
[Cb cap Ac trans Cs]
+13.4 +12.1 92 +13 +13 1015.1 1005.0
21 16.08 штиль 0
{1}
50 км 9/0
[Ac trans Cs]
+9.2 +8.6 96 +8 +8 1016.7 1006.4
00 17.08 штиль 0
{1}
1500 м дымка 9/0
[Ac trans Cs]
+7.3 +6.8 97 +6 +6 1017.9 1007.5
03 17.08 З 1-1
{1}
1500 м в посл. час туман 9/0
[Ac trans Cs]
+7.5 +7.3 99 +6 +7 1018.7 1008.3 +6.6
06 17.08 ЮЗ 1-2
{2}
26 км {туман} 3/0
[Ci fib]
+17.0 +11.3 69 +18 +25 1019.0 1009.0
09 17.08 СЗ 2-4
{6}
20 км 8/8 1000 м
[Cu med, cong Ci fib]
+21.8 +8.1 41 +23 +25 комфорт 1018.9 1009.1
12 17.08 СВ 2-4
{5}
20 км 8/6 1000 м
[Cu med, cong Ci fib]
+21.9 +8.5 42 +23 +25 комфорт 1018.8 1009.0
15 17.08 штиль 0
{4}
20 км 6/3 600 м
[Sc diur, vesp Ac cuf Cs]
+20.3 +10.4 53 +22 +22 комфорт 1019.2 1009.3 +23.0
18 17.08 штиль 0
{1}
50 км туман поземный 3/0
[Ac trans Ci fib]
+12.4 +11.4 94 +12 +12 1020.2 1010.0
21 17.08 штиль 0
{1}
50 км туман поземный 8/0
[Cs]
+8.4 +7.8 96 +7 +7 1020.6 1010.3
00 18.08 штиль 0
{1}
50 км туман поземный 4/0
[Ci fib]
+6.2 +5.8 97 +5 +5 1021.5 1011.1
03 18.08 штиль 0
{1}
50 км 9/0
[Cs]
+8.0 +7.4 96 +7 +8 1021.8 1011.5 +5.5
06 18.08 В 1-1
{2}
20 км 9/0
[Cs]
+17.7 +11.7 68 +19 +25 1021.6 1011.6
09 18.08 В 2-4
{5}
20 км 9/1 1000 м
[Cu hum Ac trans Cs]
+20.7 +9.9 50 +23 +28 комфорт 1021.2 1011.3
12 18.08 ЮВ 3-6
{7}
20 км 9/3 600 м
[Sc diur, vesp Ac trans Cs]
+21.6 +8.4 43 +23 +25 комфорт 1020.8 1010.9
15 18.08 ЮВ 1-2
{6}
20 км 9/4 300 м
[Cb cap Ac trans Cs]
+19.2 +11.2 60 +21 +22 комфорт 1021.2 1011.2 +21.6
18 18.08 В 1-3
{6}
50 км {ливн. осадки} 9/5 300 м
[Cb cap Ac trans]
+16.6 +11.7 73 +17 +17 1020.9 1010.9
21 18.08 В 1-4
{4}
50 км 9/3 600 м
[Sc diur, vesp Ac und]
+16.5 +11.3 71 +17 +17 1019.7 1009.7
00 19.08 В 1-3
{4}
50 км 9/4 300 м
[Cb cap Ac und]
+15.4 +11.9 80 +16 +16 1019.1 1009.0
03 19.08 В 1-3
{4}
20 км 9/4 300 м
[Cb cap Ac und]
+15.3 +13.1 87 +16 +16 1018.3 1008.2 +15.2 0.0
06 19.08 В 2-4
{4}
27 км 9/9 300 м
[Cb cap]
+15.8 +14.6 93 +16 +16 1017.8 1007.8 +14.9
09 19.08 В 1-2
{4}
9000 м слаб. морось 10/10 300 м
[St]
+16.3 +15.6 96 +17 +17 1017.5 1007.5
12 19.08 В 1-2
{4}
16 км слаб. ливневой дождь {морось} 9/9 300 м
[Cb cap]
+17.2 +16.5 96 +18 +19 1016.7 1006.8
15 19.08 штиль 0
{3}
30 км {ливн. осадки} 9/8 300 м
[Cb cap Ac cuf]
+17.9 +17.1 95 +18 +18 1016.5 1006.6 +18.1 5
18 19.08 штиль 0
{2}
5000 м дымка {ливн. осадки} 9/6 300 м
[St Ac inh]
+16.8 +16.4 97 +17 +17 1016.2 1006.2
21 19.08 штиль 0
{2}
17 км 9/9 300 м
[Cb cap]
+16.2 +15.5 96 +16 +16 1016.0 1006.0
00 20.08 штиль 0
{3}
3100 м дымка {ливн. осадки} 9/5 300 м
[Cb cap Ac cuf]
+15.7 +16 +16 1016.2 1006.2
03 20.08 З 1-3
{3}
23 км 9/8 300 м
[Cb cap Ac cuf]
+16.1 +15.6 97 +17 +17 1017.4 1007.4 +15.3 0.0
06 20.08 З 1-3
{3}
50 км 9/8 300 м
[Cb cap Ac cuf]
+17.5 +16.5 94 +19 +19 1018.1 1008.1
09 20.08 З 2-3
{3}
20 км 9/8 300 м
[Cb cap Ac cuf]
+18.9 +16.2 84 +21 +22 комфорт 1018.8 1008.8
12 20.08 З 2-3
{5}
20 км 9/8 300 м
[Cb cap Ac cuf]
+19.3 +15.6 79 +22 +22 комфорт 1019.5 1009.6
15 20.08 штиль 0
{4}
20 км 8/1 300 м
[Cb cap Ac cuf Cs]
+18.4 +16.0 86 +19 +19 1019.9 1009.9 +20.6
18 20.08 штиль 0
{1}
3200 м дымка 6/0
[Ac trans Cs]
+13.8 +13.4 97 +13 +13 1020.4 1010.3
21 20.08 штиль 0
{1}
3500 м дымка 9/0
[Ac trans Cs]
+12.3 +11.8 97 +12 +12 1021.1 1010.9
00 21.08 штиль 0
{1}
3200 м дымка 9/0
[Ac trans Cs]
+11.4 +11.0 97 +11 +11 1021.1 1010.9
03 21.08 штиль 0
{2}
20 км 9/3 600 м
[Sc Ac trans Cs]
+13.2 +12.8 97 +13 +13 1020.8 1010.6 +11.1
06 21.08 ЮВ 1-2
{3}
18 км в посл. час ливневой дождь 9/5 300 м
[Cb cap Ac As]
+15.9 +15.2 96 +17 +18 1020.5 1010.5
09 21.08 З 1-2
{3}
9000 м слаб. ливневой дождь 9/9 300 м
[Cb cap Ac As]
+18.6 +18.0 96 +21 +22 комфорт 1020.2 1010.2
12 21.08 СЗ 2-4
{6}
20 км {ливн. осадки} 9/8 300 м
[Cb cap Ac As]
+20.2 +17.4 84 +24 +25 комфорт 1020.5 1010.6
15 21.08 З 2-3
{4}
20 км 4/0
[Ac cast Cs]
+21.0 +15.3 70 +25 +25 комфорт 1020.9 1011.0 +21.4 2
18 21.08 штиль 0
{3}
4500 м дымка 3/0
[Ac trans Ci fib]
+13.6 +13.0 96 +13 +13 1021.3 1011.2
21 21.08 штиль 0
{2}
5000 м дымка 9/0
[Ac trans Cs]
+12.6 +12.2 97 +12 +12 1021.2 1011.0
00 22.08 штиль 0
{2}
3800 м дымка 8/0
[Ac trans Ci fib]
+10.7 +10.5 99 +10 +10 1021.5 1011.3
03 22.08 штиль 0
{2}
5000 м дымка 9/4 600 м
[Sc Ac trans Ci fib]
+11.5 +11.1 97 +11 +11 1021.5 1011.3 +9.9
06 22.08 ЮВ 1-1
{1}
20 км 9/4 600 м
[Sc Ac trans Ci fib]
+15.3 +13.9 91 +16 +18 1020.5 1010.5
09 22.08 Ю 1-2
{2}
20 км слаб. ливневой дождь 9/8 300 м
[Cb cap Ac cuf]
+18.6 +16.1 85 +21 +22 комфорт 1018.5 1008.5
12 22.08 ЮВ 3-6
{6}
20 км {ливн. осадки} 9/5 600 м
[Cu hum Ac cuf]
+18.4 +16.0 86 +19 +20 1015.7 1005.7
15 22.08 штиль 0
{6}
8000 м слаб. ливневой дождь 9/8 300 м
[Cb cap Ac cuf]
+18.0 +16.5 91 +18 +18 1012.1 1002.2 +20.5 2
18 22.08 ЮЗ 2-5
{6}
22 км в посл. час ливневой дождь {гроза} 9/6 300 м
[Cb cap Ac cuf]
+17.3 +16.6 96 +18 +18 1010.2 1000.3
21 22.08 З 4-8
{11}
50 км 9/8 300 м
[Cb cap Ac trans]
+14.6 +13.1 91 +13 +13 1013.0 1003.0
00 23.08 З 4-7
{9}
50 км 9/8 300 м
[Cb cap Ac und]
+13.7 +11.9 89 +12 +12 1014.9 1004.9
03 23.08 З 3-6
{8}
40 км 9/5 600 м
[Sc Ac As]
+12.9 +10.7 86 +11 +12 1016.1 1006.0 +12.8 5

 

Местоположение метеостанции Лальск (Кировская область, Россия): широта 60.70 долгота 47.60 высота над уровнем моря 84 м.

В архиве по умолчанию представлена погода в Лальске за последнюю неделю. Архивные данные за месяц целиком и за предыдущие месяцы, начиная с января 2011 года, Вы можете получить, выбрав интересующий диапазон дат из раскрывающегося списка и нажав кнопку "Ввод!".


*Определитесь, кто Вы:
робот инопланетянин человек

Внимание! Время в таблицах - всемирное. Для получения местного времени необходимо прибавить поправку, которая равна 3 ч.

Смотрите также архив погоды в соседних городах и на ближайших метеорологических станциях:

Погода в Вилегодском (Архангельская область, Россия) (51 км)
Погода в Великом Устюге (Вологодская область, Россия) (71 км)
Погода в Котласе (Архангельская область, Россия) (76 км)
Погода в Опарино (Кировская область, Россия) (102 км)
Погода в Объячеве (Коми, Россия) (118 км)
Погода в Слободчиково (Архангельская область, Россия) (122 км)
Погода в Красноборске (Архангельская область, Россия) (131 км)
Погода в Пустоши (Коми, Россия) (152 км)
Погода в Никольске (Вологодская область, Россия) (176 км)
Погода в Яренске (Архангельская область, Россия) (182 км)

Пояснения к столбцам:

Ветер - указаны скорость ветра в м/с - средняя за 10 мин, порывы в срок и между сроками (в фигурных скобках) и направление, откуда дует ветер: С - северный, СВ - северо-восточный, В - восточный, ЮВ - юго-восточный, Ю - южный, ЮЗ - юго-западный, З - западный, СЗ - северо-западный.
Видимость - горизонтальная дальность видимости в метрах или километрах. При видимости от 1 до 10 км при отсутствии осадков обычно наблюдается дымка, при ухудшении видимости до 1 км и менее - туман. В сухую погоду видимость может ухудшаться дымом, пылью или мглою.
Явления - указаны атмосферные явления, наблюдавшиеся в срок или в последний час перед сроком; фигурными скобками обозначены явления, наблюдавшиеся между сроками (за 1-3 часа до срока); квадратными скобками обозначены град или гололедные отложения с указанием их диаметра в мм.
Облачность - указаны через наклонную черту общая и нижняя облачность в баллах и высота нижней границы облаков в метрах; квадратными скобками обозначены формы облаков: Ci - перистые, Cs - перисто-слоистые, Cc - перисто-кучевые, Ac - высококучевые, As - высокослоистые, Sc - слоисто-кучевые, Ns - слоисто-дождевые, Cu - кучевые, Cb - кучево-дождевые. Подробнее классификацию облаков см. в Атласе облаков (PDF).
T - Температура воздуха - температура, измеренная на высоте 2 м над землей.
Td - Температура точки росы - температура, при понижении до которой содержащийся в воздухе водяной пар достигнет насыщения.
f - Относительная влажность воздуха - влажноcть воздуха, измеренная на высоте 2 м над землей.
Te - Эффективная температура - температура, которую ощущает одетый по сезону человек в тени. Характеристика душности погоды. При расчете учитывается влияние влажности воздуха и скорости ветра на теплоощущения человека.
Tes - Эффективная температура на солнце - температура, которую ощущает человек, с поправкой на солнечный нагрев. Характеристика знойности погоды. Зависит от высоты солнца над горизонтом, облачности и скорости ветра. Ночью, в пасмурную погоду, а также при ветре 12 м/с и более поправка равна нулю.
P - Атмосферное давление - приведенное к уровню моря атмосферное давление.
Po - Атмосферное давление - измеренное на уровне метеостанции атмосферное давление.
Tmin - Минимальная температура - минимум температуры воздуха на высоте 2 м над землей.
Tmax - Максимальная температура - максимум температуры воздуха на высоте 2 м над землей.
R - Количество осадков - Количество выпавших осадков за период времени, мм. При наведении курсора мыши на число - период времени, за который выпало указанное количество осадков.
R24 - Количество осадков - Количество выпавших осадков за 24 часа, мм.
S - Снежный покров - Высота снежного покрова, см. При наведении курсора мыши на число - состояние снежного покрова и степень покрытия местности в баллах.